Wetbulb
71.27 72.43 73.01 73.94 74.28 75.17 75.18 75.24 74.14 75.75 75.31 74.58 74.76 75.07 75.13 75.66 75.80 76.93 78.55 79.31 79.25 78.87 79.33 78.05 78.68 78.52 77.24 77.30 76.60 76.39 75.53 71.11 71.83 72.03 72.32 72.79 73.31 73.26 73.11 73.83 74.41 74.79 74.90
70.52 71.74 72.80 73.54 73.82 74.59 75.35 75.46 74.58 75.50 75.64 75.42 75.91 75.75 76.09 75.94 75.18 76.13 77.89 78.88 78.28 78.36 78.75 79.60 78.48 78.56 77.31 78.38 78.11 76.77 74.83 73.86 73.78 71.31 71.25 68.34 70.19 72.12 72.21 74.04 73.69 74.04 74.04
69.65 71.02 71.90 72.86 73.55 73.98 75.19 75.81 75.55 75.68 76.06 77.13 76.43 77.07 77.67 77.72 76.27 75.81 75.76 76.82 78.45 78.51 79.25 79.49 79.70 79.73 79.47 76.99 78.54 76.07 75.62 73.74 74.44 76.20 72.93 67.37 64.98 68.91 71.85 72.67 73.96 73.78 73.06
70.35 71.15 71.58 72.32 73.18 73.95 75.39 75.99 76.75 76.02 76.15 77.37 77.81 77.98 74.77 73.94 74.41 75.19 74.96 75.49 77.85 78.18 78.37 79.43 79.68 80.11 78.67 79.39 78.45 78.61 77.94 78.11 76.46 75.10 77.89 76.29 73.65 68.44 66.41 69.69 72.82 73.73 72.04
69.96 70.44 71.34 72.58 73.75 74.33 74.83 75.94 76.67 77.46 78.00 77.38 78.05 76.05 76.09 74.86 75.27 75.54 77.24 78.41 78.32 78.47 77.74 78.29 79.23 79.57 78.85 79.48 79.81 79.42 79.59 78.32 76.15 75.82 74.22 74.37 73.42 73.47 69.66 63.82 71.07 73.19 72.06
70.86 70.87 72.16 72.96 73.44 74.29 74.62 75.42 76.19 77.83 77.66 77.50 77.41 77.86 77.79 77.05 75.12 76.09 74.87 74.88 74.90 75.68 77.52 77.96 78.70 79.46 79.54 79.56 79.59 81.03 79.09 79.56 77.63 75.56 75.33 74.17 73.83 73.02 69.70 65.86 68.49 70.36 71.24
71.43 71.34 71.10 71.68 72.86 73.51 74.04 74.78 75.66 76.34 77.18 77.13 77.21 77.23 77.16 77.55 77.18 77.15 75.64 76.27 73.49 73.90 76.38 77.98 78.64 77.84 79.19 79.99 79.80 79.47 80.25 78.80 78.75 78.87 76.32 75.32 75.57 73.76 71.59 68.32 68.19 68.44 71.26
71.83 71.82 72.06 71.89 72.40 73.08 73.75 74.46 75.11 76.03 76.92 76.71 77.43 78.76 78.09 76.74 76.50 77.53 76.11 74.65 74.10 74.09 76.45 76.76 77.74 77.39 77.86 77.88 78.58 78.28 78.18 79.76 78.37 78.11 77.94 77.80 70.52 69.76 69.86 69.16 69.19 66.47 67.89
71.25 72.03 72.72 73.07 72.75 72.99 73.48 74.18 74.90 75.84 76.77 76.82 77.67 78.06 77.92 77.54 77.63 78.48 77.77 76.39 77.82 76.27 76.76 77.38 77.44 77.38 77.58 78.38 79.83 78.06 78.37 78.21 79.31 78.38 75.49 73.06 69.70 71.40 70.67 72.29 71.54 68.02 62.15
70.85 71.96 72.91 73.38 73.81 73.79 73.94 74.30 74.86 75.45 76.54 76.92 77.02 77.30 77.61 78.10 77.99 77.90 77.66 77.68 77.85 78.12 78.00 77.65 77.65 77.65 78.07 78.51 78.98 77.97 78.10 78.78 78.73 73.94 71.50 68.90 69.81 69.38 72.64 72.31 70.63 67.27 63.68
69.18 71.18 72.32 73.53 73.90 74.22 74.27 74.25 74.26 74.83 76.14 76.66 76.80 77.17 77.37 77.78 78.00 77.67 77.86 78.14 78.63 78.82 78.56 78.43 78.34 78.13 78.07 78.44 78.77 78.91 79.06 77.71 73.88 72.81 69.69 69.84 69.69 68.88 69.98 68.08 64.26 61.41 60.45
68.69 70.55 71.91 72.79 73.48 73.70 74.21 74.35 74.80 74.67 75.72 76.89 78.41 77.70 77.90 77.87 77.60 77.71 77.93 78.55 78.52 79.16 78.85 78.75 78.35 78.29 78.40 79.23 79.09 78.23 78.08 75.28 74.01 72.45 72.00 71.37 68.08 68.45 66.67 62.76 62.62 61.18 61.63
68.66 70.28 71.36 72.30 72.95 73.48 73.91 74.45 75.02 75.05 75.81 77.48 77.01 77.42 77.84 78.72 78.84 78.71 78.62 78.84 78.75 78.57 78.35 78.19 78.14 78.36 79.33 79.36 79.36 78.91 75.53 75.27 73.09 73.29 72.71 70.33 68.73 65.05 62.48 62.06 60.97 60.63 60.58
69.62 69.95 71.35 73.38 74.59 74.81 75.18 74.72 74.70 75.50 76.22 76.50 76.65 77.02 77.26 77.74 77.90 78.49 78.36 78.60 78.87 78.28 78.19 78.53 78.81 79.35 79.80 79.53 79.21 76.32 74.39 73.02 74.12 72.75 72.19 69.29 65.50 63.11 62.60 62.10 62.22 61.72 60.86
69.53 69.82 71.25 73.11 74.67 74.74 75.72 75.34 75.15 76.27 76.91 77.00 76.40 76.88 77.70 77.93 78.15 78.09 78.27 78.35 78.49 78.55 78.70 78.58 79.02 79.64 79.52 79.47 79.21 75.68 73.16 74.06 71.95 70.51 66.92 64.72 62.51 61.21 62.01 61.53 62.30 62.40 60.44
68.88 70.26 71.65 72.91 73.35 74.31 74.91 74.79 75.14 75.66 77.08 76.15 76.16 77.27 77.69 77.77 77.88 78.04 78.09 78.41 78.54 78.76 78.96 78.78 78.95 79.23 78.89 66.61 68.01 71.80 72.69 72.66 68.64 64.74 61.74 60.51 60.95 60.08 59.81 60.07 58.75 59.59 60.98
70.58 70.11 71.60 73.01 73.89 74.12 74.99 74.57 75.02 76.12 77.78 77.21 76.51 76.95 77.93 77.47 77.93 78.12 78.28 78.23 78.45 79.20 78.99 78.74 79.43 79.51 78.50 63.95 64.32 66.69 73.45 71.09 67.95 65.44 62.98 61.50 60.04 61.52 60.81 59.10 59.01 57.91 57.32
71.36 73.56 72.67 72.93 74.44 75.33 75.39 75.76 75.61 75.91 75.81 75.89 76.09 76.75 77.19 77.21 77.80 78.11 78.12 78.57 78.76 78.78 78.91 79.27 80.04 80.04 73.19 60.99 61.25 64.81 72.23 69.19 67.08 65.34 63.76 62.58 62.72 62.71 62.72 62.10 61.02 60.80 60.40
71.33 73.08 75.65 75.73 73.96 74.82 75.57 75.32 75.28 75.53 75.55 75.59 75.99 76.65 77.34 77.29 77.57 77.54 78.02 78.69 78.82 79.06 79.29 79.96 80.21 77.04 66.11 57.88 59.22 66.97 70.26 67.32 65.85 65.03 64.13 63.38 62.43 57.02 58.02 61.74 60.45 60.56 60.09
71.99 73.34 75.52 74.00 74.10 74.83 75.64 75.15 74.76 75.11 75.14 75.71 76.41 77.47 77.65 77.69 77.77 78.46 79.11 79.45 79.58 79.39 78.86 79.83 79.91 69.51 68.41 55.32 56.20 65.67 68.97 66.10 64.49 64.98 62.88 59.33 60.42 55.03 56.08 62.10 60.83 59.44 60.24
72.12 74.03 74.32 73.95 73.13 75.08 75.69 74.68 75.05 75.05 76.28 76.84 77.49 77.97 78.23 78.91 79.10 79.90 79.76 79.51 79.40 80.02 79.81 79.13 75.63 74.71 70.73 61.76 54.55 57.40 69.75 67.05 65.53 63.35 60.90 60.20 53.52 52.23 52.48 55.47 60.85 59.27 60.57
68.71 72.17 74.19 73.74 75.11 75.53 75.36 75.16 74.81 76.47 77.34 77.43 77.51 77.80 78.33 78.04 78.60 79.62 79.51 79.73 79.70 79.53 78.65 74.80 73.25 72.49 69.42 57.85 53.28 54.84 60.25 62.82 67.42 65.23 62.52 59.37 50.71 49.16 49.68 54.71 52.04 53.68 57.02
65.77 68.67 71.15 74.13 74.78 75.29 75.84 75.61 77.00 77.73 77.58 77.49 77.74 78.14 78.72 78.53 79.04 78.95 79.00 78.47 79.59 78.11 75.21 73.85 70.78 68.44 68.66 62.76 51.89 52.33 54.98 58.44 66.61 64.59 58.20 51.16 47.48 47.75 51.61 50.86 50.76 51.11 58.59
64.15 65.11 66.49 68.56 71.54 75.97 75.98 76.73 77.48 77.81 78.06 77.74 78.19 78.57 78.58 78.23 79.21 78.83 78.80 77.78 77.44 76.94 75.80 74.44 70.97 69.55 70.39 66.18 61.05 62.75 62.61 56.14 60.06 55.54 57.87 57.20 55.75 53.96 56.13 55.54 56.39 59.22 58.35
63.79 63.83 64.27 64.53 65.89 70.27 72.95 75.54 77.47 77.12 76.72 77.56 77.74 77.65 77.71 77.74 78.31 78.99 76.66 77.48 78.48 75.75 76.41 75.73 74.32 72.95 71.00 68.24 62.22 62.84 65.20 64.95 58.65 59.68 59.20 59.07 59.79 58.89 58.51 59.32 59.25 57.88 57.85
62.42 61.34 60.77 61.64 64.15 65.27 65.18 68.00 73.94 78.19 77.11 76.60 76.26 75.91 76.09 76.19 77.10 76.62 75.61 53.43 54.27 57.50 57.72 60.79 70.24 74.24 61.93 51.39 49.01 47.89 47.03 47.54 49.16 58.83 59.21 59.58 59.62 59.04 58.94 58.72 58.49 57.99 57.37
MSLP
1009.70 1010.56 1011.42 1012.07 1012.79 1013.61 1014.35 1014.96 1015.39 1015.89 1016.30 1016.41 1016.29 1016.17 1015.94 1015.96 1015.93 1015.85 1016.30 1016.52 1016.47 1016.52 1016.63 1016.27 1016.40 1016.56 1016.39 1016.42 1016.99 1017.66 1017.37 1016.60 1016.02 1016.15 1014.75 1013.84 1013.46 1013.66 1013.49 1013.64 1013.43 1013.54 1013.34
1009.11 1009.93 1010.93 1011.66 1012.29 1013.17 1013.92 1014.62 1015.08 1015.66 1016.03 1015.97 1015.97 1015.89 1015.80 1015.56 1015.52 1015.58 1015.97 1016.32 1016.45 1016.49 1016.47 1016.64 1016.37 1016.33 1016.12 1016.30 1017.79 1017.44 1018.04 1017.09 1016.45 1016.29 1015.60 1013.72 1012.89 1012.64 1013.30 1013.58 1013.57 1013.56 1013.66
1008.16 1009.17 1010.24 1011.01 1011.72 1012.50 1013.36 1014.10 1014.74 1015.26 1015.71 1015.66 1015.99 1016.21 1016.10 1016.08 1015.85 1015.74 1015.90 1015.81 1016.18 1016.28 1016.44 1016.56 1016.45 1016.31 1016.22 1015.59 1016.70 1017.40 1017.01 1016.48 1016.09 1016.25 1016.43 1014.97 1013.99 1013.68 1013.18 1013.23 1013.58 1014.31 1014.04
1007.41 1008.35 1009.46 1010.32 1010.85 1011.70 1012.68 1013.50 1014.29 1014.75 1015.33 1015.68 1015.55 1015.68 1015.49 1015.26 1015.14 1015.28 1015.23 1015.44 1015.82 1016.05 1016.11 1016.28 1016.19 1015.93 1015.94 1015.94 1015.76 1015.67 1016.06 1016.15 1015.91 1015.76 1015.88 1015.76 1015.49 1014.90 1013.72 1013.86 1013.53 1014.47 1014.41
1006.41 1007.20 1008.33 1009.29 1009.97 1010.90 1011.69 1012.64 1013.65 1014.27 1014.58 1015.18 1015.38 1015.48 1015.51 1015.00 1015.11 1015.18 1015.34 1015.62 1015.76 1015.84 1015.79 1015.81 1015.82 1015.84 1015.66 1015.52 1015.55 1015.63 1015.78 1015.88 1015.83 1015.55 1014.84 1014.74 1015.07 1015.11 1015.43 1015.17 1014.29 1014.23 1014.04
1005.32 1006.31 1007.40 1008.45 1009.22 1010.03 1010.88 1011.69 1012.76 1013.56 1014.22 1014.66 1015.11 1015.20 1015.10 1015.20 1014.84 1015.00 1015.14 1015.17 1015.02 1015.05 1015.17 1015.46 1015.48 1015.52 1015.53 1015.18 1015.20 1015.51 1015.52 1015.38 1015.26 1014.86 1014.21 1014.39 1014.66 1014.70 1015.51 1015.42 1014.74 1014.46 1014.26
1004.21 1005.34 1006.38 1007.32 1008.27 1009.07 1009.92 1010.78 1011.85 1012.79 1013.49 1013.96 1014.40 1014.73 1015.02 1015.20 1015.13 1015.22 1014.99 1014.91 1014.52 1014.56 1014.82 1015.25 1015.38 1015.17 1014.93 1014.90 1014.90 1015.20 1015.37 1014.87 1015.04 1014.72 1014.31 1014.29 1014.77 1015.35 1015.77 1015.72 1015.26 1014.87 1014.41
1003.03 1004.18 1005.14 1006.19 1007.09 1007.98 1008.98 1009.82 1010.73 1011.85 1012.61 1013.14 1013.58 1014.03 1014.49 1014.63 1014.65 1014.70 1014.70 1014.58 1014.38 1014.34 1014.56 1014.93 1015.04 1015.05 1014.73 1014.42 1014.76 1014.85 1014.43 1014.85 1014.50 1014.59 1014.51 1014.66 1015.67 1015.92 1016.09 1015.90 1015.40 1014.42 1013.83
1001.56 1002.67 1003.80 1004.97 1006.09 1007.02 1007.90 1008.78 1009.74 1010.85 1011.67 1012.30 1012.83 1013.29 1013.83 1014.14 1013.76 1014.08 1014.35 1014.48 1014.61 1014.47 1014.59 1014.91 1014.94 1014.81 1014.60 1014.47 1014.68 1014.29 1014.31 1014.46 1014.50 1014.52 1014.88 1015.39 1016.00 1016.05 1015.98 1015.67 1015.46 1015.10 1013.32
1000.29 1001.31 1002.58 1003.76 1004.88 1005.86 1006.85 1007.95 1008.90 1009.85 1010.72 1011.44 1012.03 1012.48 1012.92 1013.39 1013.69 1013.96 1014.14 1014.15 1014.15 1014.38 1014.52 1014.71 1014.61 1014.53 1014.38 1014.41 1014.57 1014.21 1014.07 1014.25 1014.72 1015.06 1015.69 1016.09 1016.12 1016.11 1015.71 1015.23 1014.83 1014.37 1014.25
999.15 1000.11 1001.19 1002.56 1003.74 1004.64 1005.72 1006.78 1007.88 1008.91 1009.92 1010.55 1011.08 1011.72 1012.18 1012.67 1013.18 1013.45 1013.72 1013.93 1014.04 1014.17 1014.35 1014.50 1014.35 1014.25 1014.22 1014.28 1014.35 1014.32 1014.03 1014.52 1015.09 1015.55 1015.94 1016.16 1016.32 1015.95 1015.48 1015.38 1015.25 1015.20 1015.20
998.26 999.15 1000.13 1001.34 1002.75 1003.75 1004.63 1005.72 1006.78 1007.79 1008.82 1009.67 1010.33 1010.93 1011.54 1012.01 1012.43 1012.82 1013.16 1013.45 1013.65 1013.80 1014.03 1014.08 1014.10 1014.06 1014.06 1014.09 1014.02 1014.02 1014.28 1014.83 1015.18 1015.58 1015.72 1015.99 1016.25 1016.28 1016.34 1016.27 1016.55 1016.55 1016.41
997.99 998.62 999.52 1000.46 1001.75 1002.91 1003.93 1004.94 1006.04 1006.82 1007.85 1008.81 1009.68 1010.38 1011.03 1011.46 1011.82 1012.16 1012.64 1012.96 1013.19 1013.42 1013.53 1013.68 1013.74 1013.79 1013.79 1013.84 1013.90 1014.28 1014.84 1014.96 1015.41 1015.48 1015.71 1016.26 1016.59 1016.80 1016.83 1016.75 1016.62 1016.67 1016.76
998.68 998.77 999.46 1000.25 1001.32 1002.46 1003.39 1004.35 1005.15 1006.06 1007.10 1008.12 1008.96 1009.70 1010.27 1010.72 1011.12 1011.55 1012.04 1012.41 1012.71 1012.98 1013.10 1013.29 1013.38 1013.49 1013.52 1013.66 1014.08 1014.75 1015.07 1015.40 1015.36 1015.84 1016.14 1016.54 1016.97 1017.28 1017.49 1017.76 1017.67 1017.56 1016.81
999.42 999.43 999.98 1000.30 1001.14 1002.23 1003.16 1004.09 1004.88 1005.66 1006.54 1007.55 1008.29 1008.93 1009.49 1010.04 1010.48 1010.86 1011.32 1011.78 1012.20 1012.44 1012.73 1012.84 1013.03 1013.21 1013.28 1013.21 1014.24 1014.79 1015.29 1015.33 1015.96 1016.34 1016.71 1017.14 1017.62 1018.07 1018.09 1017.83 1018.15 1017.89 1017.44
1000.00 1000.27 1000.55 1000.88 1001.44 1001.89 1002.66 1003.65 1004.47 1005.14 1005.97 1006.96 1007.63 1008.32 1008.91 1009.38 1009.84 1010.26 1010.70 1011.32 1011.76 1012.05 1012.30 1012.47 1012.74 1012.87 1012.84 1013.70 1014.61 1015.10 1015.41 1015.72 1016.31 1016.90 1017.59 1018.18 1018.50 1018.87 1018.92 1018.99 1019.20 1019.26 1018.66
1000.75 1000.34 1000.61 1000.91 1001.50 1002.06 1002.76 1003.25 1004.01 1004.80 1005.51 1006.35 1007.10 1007.79 1008.36 1008.82 1009.26 1009.73 1010.23 1010.75 1011.26 1011.57 1011.91 1012.18 1012.42 1012.73 1013.54 1014.25 1014.95 1015.29 1015.38 1015.96 1016.55 1017.12 1017.56 1017.66 1018.65 1018.96 1019.28 1019.57 1019.67 1019.80 1019.58
1002.13 1001.47 1000.77 1000.68 1001.20 1001.74 1002.47 1003.06 1003.72 1004.46 1005.11 1005.85 1006.43 1007.20 1007.90 1008.34 1008.84 1009.34 1009.76 1010.34 1010.79 1011.14 1011.50 1011.78 1012.19 1012.76 1014.23 1014.82 1015.31 1015.53 1015.75 1016.34 1016.81 1017.23 1017.67 1018.17 1018.66 1019.10 1019.17 1019.29 1019.45 1019.53 1019.90
1003.05 1002.28 1001.74 1001.22 1000.90 1001.18 1001.89 1002.72 1003.43 1004.23 1004.78 1005.24 1005.93 1006.49 1007.20 1007.86 1008.31 1008.83 1009.34 1009.90 1010.33 1010.77 1011.23 1011.52 1012.05 1013.29 1014.94 1015.28 1015.56 1015.56 1015.94 1016.55 1017.07 1017.66 1018.18 1018.53 1019.02 1019.73 1019.66 1019.58 1019.69 1019.71 1019.93
1002.82 1002.76 1001.77 1000.96 1000.69 1001.10 1001.67 1002.37 1002.99 1003.69 1004.41 1004.85 1005.23 1005.99 1006.72 1007.30 1007.77 1008.26 1008.85 1009.46 1009.95 1010.40 1010.59 1011.28 1012.16 1013.65 1014.79 1015.56 1015.69 1015.63 1015.84 1016.61 1017.07 1017.92 1018.74 1019.04 1019.46 1020.04 1020.11 1019.90 1019.80 1019.76 1019.94
1004.08 1003.73 1002.00 1000.84 1000.70 1001.10 1001.58 1002.14 1002.72 1003.26 1003.91 1004.62 1005.31 1005.85 1006.40 1006.90 1007.40 1007.94 1008.57 1009.15 1009.65 1009.93 1010.64 1011.44 1012.79 1013.66 1014.45 1015.61 1015.79 1015.67 1015.73 1016.20 1016.61 1017.48 1018.36 1019.24 1020.07 1020.43 1020.55 1020.47 1020.29 1020.25 1020.27
1005.84 1004.11 1002.71 1002.14 1001.58 1001.53 1001.85 1002.19 1002.58 1003.11 1003.70 1004.22 1004.97 1005.68 1006.22 1006.40 1006.99 1007.74 1008.37 1008.93 1009.40 1009.97 1010.80 1011.91 1012.89 1013.78 1014.78 1015.63 1016.08 1016.10 1016.00 1016.46 1016.54 1017.05 1017.84 1019.41 1020.39 1020.84 1021.04 1021.03 1021.23 1020.90 1020.03
1005.67 1005.06 1004.43 1003.31 1002.56 1002.45 1002.38 1002.42 1002.76 1003.24 1003.56 1004.09 1004.77 1005.40 1005.95 1006.11 1006.70 1007.40 1008.04 1008.55 1009.16 1009.63 1010.91 1011.65 1012.59 1013.67 1014.54 1015.73 1016.30 1016.59 1016.69 1016.94 1016.91 1017.28 1018.31 1019.63 1020.67 1021.20 1021.53 1021.43 1021.26 1021.28 1019.75
1007.06 1006.53 1005.67 1004.75 1003.99 1003.43 1003.07 1003.07 1003.37 1003.64 1003.89 1004.06 1004.61 1005.09 1005.59 1006.03 1006.42 1006.91 1007.57 1007.67 1008.32 1008.80 1009.87 1010.98 1012.08 1013.04 1013.73 1015.00 1015.99 1016.63 1017.19 1017.43 1017.72 1018.26 1019.19 1019.85 1020.34 1020.61 1020.88 1021.38 1021.00 1020.16 1019.88
1008.09 1007.55 1006.79 1005.91 1005.63 1005.24 1004.63 1004.56 1003.71 1003.76 1004.07 1004.31 1004.62 1004.85 1005.14 1005.63 1006.19 1006.27 1007.03 1007.32 1007.73 1008.12 1008.97 1009.99 1010.97 1011.71 1012.70 1013.87 1014.84 1015.49 1016.11 1016.73 1017.66 1018.23 1019.00 1019.21 1019.49 1019.90 1020.10 1020.05 1020.32 1020.34 1020.16
1008.67 1008.20 1007.91 1007.29 1006.90 1006.33 1005.76 1005.78 1004.99 1004.11 1004.16 1004.29 1004.37 1004.32 1004.38 1005.16 1005.39 1006.19 1007.54 1008.51 1008.74 1008.70 1009.33 1009.73 1010.04 1011.06 1011.82 1013.41 1014.82 1015.53 1016.09 1016.47 1017.17 1017.66 1017.93 1018.11 1018.58 1018.93 1019.18 1019.43 1019.74 1020.08 1020.23
Wind_Speed
19 18 17 17 16 14 15 15 15 13 11 9 8 7 7 6 6 5 3 3 3 3 3 5 3 4 4 5 5 7 3 3 5 8 11 9 5 5 4 5 4 4 6
19 19 18 18 17 16 15 15 15 14 13 10 8 6 6 5 6 6 4 5 4 4 4 4 4 4 6 6 3 7 8 3 2 4 9 8 8 2 8 5 5 8 8
20 20 20 19 18 18 17 16 16 15 14 12 8 6 5 5 6 7 7 8 5 4 3 4 5 6 7 7 3 3 9 2 4 6 4 6 8 10 3 5 3 6 7
19 20 21 21 20 18 17 17 17 16 15 14 11 11 9 9 8 7 7 6 5 6 6 5 6 7 7 6 7 4 4 6 5 6 4 8 7 6 7 7 3 3 3
21 22 23 23 21 19 18 17 17 17 15 15 13 11 12 8 7 7 8 7 8 8 10 6 7 7 7 5 7 7 5 4 6 8 7 9 6 8 4 5 7 4 1
22 22 21 21 20 19 18 17 18 17 17 16 17 14 11 11 8 8 7 7 7 7 9 9 8 7 7 8 7 6 7 7 8 9 7 8 5 5 1 5 7 6 2
22 21 22 22 21 21 21 18 19 18 18 18 17 17 16 14 13 11 9 9 8 7 7 8 9 8 7 9 9 9 8 9 8 9 6 5 4 4 1 3 5 3 2
21 22 23 22 22 23 23 21 20 19 19 19 18 15 16 11 11 12 10 8 8 7 7 8 9 9 10 10 9 8 8 9 8 9 6 5 5 4 2 2 4 6 5
23 25 25 23 21 22 23 23 21 20 19 19 16 16 15 15 12 12 9 9 9 9 9 8 8 9 10 10 8 8 9 9 8 7 7 5 5 3 2 3 3 5 8
21 23 22 23 22 22 22 23 21 20 19 19 16 15 16 15 14 12 12 11 9 8 9 7 9 10 10 10 9 9 8 7 5 4 6 4 3 2 2 3 4 6 8
19 20 21 22 23 22 21 21 21 21 18 18 17 16 15 15 14 13 12 12 10 9 9 8 9 9 10 9 7 7 7 5 4 4 4 4 4 3 2 4 5 6 7
18 19 21 21 21 21 21 21 20 20 18 16 14 15 15 14 14 13 13 12 11 9 8 8 8 8 8 8 7 7 4 3 4 5 4 5 5 5 4 6 8 8 7
14 18 19 19 20 19 19 20 20 20 19 16 16 15 14 13 13 13 12 12 11 9 9 7 8 7 7 6 4 3 5 5 6 6 7 7 7 7 6 7 6 5 5
11 15 17 17 17 18 18 19 20 20 18 18 17 15 15 15 14 13 12 12 11 10 9 8 7 7 6 5 3 7 7 7 7 9 9 8 8 7 7 8 6 5 3
9 13 15 16 17 17 16 17 17 17 17 16 17 16 15 14 13 12 12 10 10 9 8 7 7 6 5 3 6 8 9 8 11 10 10 10 11 14 13 6 6 7 8
4 9 12 14 16 17 18 17 17 17 17 17 18 16 15 14 13 13 11 10 9 9 8 7 6 5 4 14 13 10 9 11 11 11 12 12 12 14 14 13 16 13 8
8 4 11 12 13 15 15 17 17 17 16 16 16 15 15 15 13 12 11 10 10 8 8 6 6 5 8 13 13 9 10 11 11 11 11 10 10 10 11 9 11 10 9
11 10 6 9 13 13 14 15 16 16 17 17 16 15 15 15 13 12 11 10 9 9 7 7 6 6 7 13 13 9 12 11 11 10 10 11 9 7 6 7 7 8 10
10 10 11 10 10 13 14 14 15 16 16 17 16 16 16 14 14 13 12 11 9 8 7 7 7 10 10 11 13 11 12 12 11 10 10 10 9 5 2 6 7 6 6
12 12 12 9 12 13 14 15 15 15 15 15 16 15 15 14 14 13 13 11 9 8 8 8 8 11 13 10 9 11 10 12 10 10 9 6 10 5 4 5 5 6 6
12 12 5 1 8 12 13 14 15 15 14 14 13 14 14 13 13 12 11 11 10 9 9 9 9 11 14 13 10 7 10 9 9 9 9 8 9 6 4 6 5 6 5
13 14 7 5 3 8 11 12 13 13 13 13 13 14 13 12 11 12 11 11 10 11 9 10 9 8 11 10 5 5 6 8 8 9 8 11 9 7 4 2 5 5 6
15 14 9 7 7 4 7 10 9 11 13 14 13 13 13 12 12 12 12 11 11 10 10 9 9 9 9 9 9 6 11 5 7 7 12 16 10 9 9 6 7 10 4
13 12 13 14 11 9 6 3 7 8 11 13 13 12 13 12 12 10 10 10 10 10 10 10 10 10 11 10 10 9 9 10 10 15 12 10 8 2 10 7 7 4 5
12 13 13 13 14 13 13 13 3 8 9 10 11 12 11 12 11 9 6 9 9 9 11 11 12 13 12 13 13 14 12 11 10 12 11 10 9 8 7 5 5 5 5
13 14 15 15 13 14 15 15 12 5 7 9 10 10 10 10 10 9 7 16 11 9 6 9 10 11 10 21 14 13 13 18 19 10 10 9 9 8 7 7 6 5 4
Wind_Direction
185 183 189 183 180 184 183 186 189 181 184 185 196 202 213 196 209 229 209 215 243 278 288 287 282 284 283 329 331 357 21 282 329 327 319 313 240 243 323 351 323 357 311
187 186 187 186 186 187 189 188 190 186 195 190 204 220 227 205 216 212 219 241 256 277 286 288 291 296 294 261 307 51 301 271 331 298 309 303 316 138 339 320 323 15 322
189 188 191 193 188 192 193 192 192 190 197 200 197 199 230 247 218 222 226 217 230 266 275 263 278 282 277 287 305 183 242 287 300 267 280 315 317 328 316 286 343 355 339
195 187 192 194 194 196 194 196 195 195 198 200 201 210 219 222 221 232 231 251 238 262 263 252 263 283 312 313 299 300 295 291 298 300 224 253 266 288 308 340 15 19 3
197 195 194 195 196 193 197 198 196 200 202 196 222 204 227 222 234 233 247 247 272 262 263 258 269 284 283 334 279 293 323 306 303 300 301 274 262 259 273 289 336 353 336
196 199 197 199 200 199 201 197 196 204 204 203 205 215 220 235 242 227 249 243 248 238 229 259 264 280 295 283 298 309 313 307 299 305 302 266 268 301 152 285 324 319 270
196 195 196 196 199 202 200 200 197 204 206 205 209 212 218 226 238 244 243 253 252 244 245 248 257 271 301 286 295 306 308 303 313 304 313 300 305 48 17 297 301 303 322
196 200 197 198 199 199 201 201 196 204 204 207 209 211 215 222 229 236 251 250 249 254 258 255 267 281 283 287 297 287 303 311 308 316 322 29 61 35 350 276 316 312 221
203 199 200 197 196 200 201 200 199 201 204 207 206 206 212 222 227 239 235 235 248 263 247 258 276 278 280 285 304 290 317 313 325 323 42 38 47 35 347 325 303 310 330
198 202 200 198 197 197 199 199 200 201 203 205 208 209 209 217 225 233 236 246 256 253 269 274 269 278 280 290 299 296 307 327 331 25 72 52 49 28 352 339 314 345 337
201 197 195 198 198 199 196 197 199 201 204 206 205 212 212 217 220 227 233 239 243 243 253 257 266 275 284 290 294 287 290 329 74 83 102 79 94 66 44 23 10 21 360
198 191 192 190 191 197 198 196 196 199 202 204 207 207 211 214 217 226 232 237 239 237 244 250 262 272 278 287 288 292 11 110 119 123 118 116 96 91 33 61 36 42 31
218 189 184 186 184 193 194 198 197 199 198 199 202 206 207 208 216 222 227 234 235 235 244 240 248 258 267 283 284 27 98 109 118 126 116 100 91 66 61 43 50 62 36
212 192 186 184 182 188 192 194 197 199 196 195 198 202 204 206 213 219 223 227 230 234 236 236 244 250 258 258 103 114 114 113 118 93 104 99 96 100 89 80 83 44 25
185 194 195 184 182 184 189 194 198 193 191 194 198 202 202 207 213 214 215 218 219 225 230 234 238 241 237 223 133 128 127 132 110 106 107 87 80 57 43 78 48 22 25
194 210 209 195 194 186 188 189 194 190 188 191 200 198 198 199 208 212 210 209 212 218 223 225 236 229 240 107 113 137 143 120 120 112 105 106 108 81 69 68 54 38 39
353 231 205 207 201 200 196 192 191 187 188 190 195 197 193 197 202 208 205 205 206 211 215 219 216 212 97 121 128 155 130 131 125 127 133 122 115 126 109 111 114 81 77
341 331 286 221 202 199 194 195 193 192 189 190 190 190 193 195 195 198 197 197 203 206 209 206 194 127 110 128 138 142 129 126 127 128 119 121 135 112 112 91 77 69 60
318 322 297 258 220 201 191 194 193 192 193 189 189 186 187 190 187 190 191 191 197 192 198 195 180 123 139 143 152 148 136 127 123 116 125 130 126 99 326 94 88 86 91
346 316 291 252 209 200 184 186 188 191 198 194 185 182 183 186 186 185 183 186 188 185 193 184 136 135 148 167 174 155 134 137 129 123 123 71 123 145 325 102 98 87 69
339 311 326 348 184 184 179 185 185 190 189 188 183 179 182 182 184 179 176 176 179 167 194 132 129 154 154 166 183 195 146 143 149 138 149 130 121 126 63 358 74 82 103
346 357 4 42 107 164 178 185 186 186 181 174 176 178 179 184 173 173 170 172 172 172 145 140 140 142 150 147 176 163 123 147 144 147 136 127 131 135 96 60 132 196 233
1 6 4 49 68 112 174 179 176 175 170 168 172 175 178 180 165 171 170 172 174 159 167 167 149 146 157 151 114 117 117 127 149 130 107 116 128 129 105 119 214 237 102
15 15 27 29 39 29 85 123 145 166 169 167 170 171 176 172 170 177 178 184 183 180 178 170 158 161 161 160 166 150 136 116 105 116 129 138 137 19 108 171 220 94 66
17 20 25 30 20 29 36 12 116 155 171 174 175 175 181 182 173 188 181 192 196 190 181 178 172 171 174 177 173 164 163 158 141 137 146 160 167 159 171 157 123 132 135
23 21 19 20 14 34 28 358 356 147 174 184 184 184 180 188 183 163 156 54 28 95 76 170 183 183 140 137 159 144 128 128 149 160 168 170 169 172 167 161 153 125 126